This is the latest recevied weather packets stored in our database for station/object WA9NNN-10. If no packets are shown the sender has not sent any weather packets the latest 1 day(s).
| Time | Temp. | Humidity | Pressure | Rain* | Wind** | Luminosity | Snow |
|---|---|---|---|---|---|---|---|
| 1778029597 | 13.33° C | 38% | 1008.2 hPa | 0 mm | 0.45 m/s, 359° | - | - |
| 1778029298 | 13.33° C | 38% | 1008.2 hPa | 0 mm | 1.34 m/s, 280° | - | - |
| 1778028997 | 13.33° C | 38% | 1008.3 hPa | 0 mm | 0.89 m/s, 273° | - | - |
| 1778028697 | 13.33° C | 38% | 1008.1 hPa | 0 mm | 0.45 m/s, 313° | - | - |
| 1778028397 | 13.33° C | 37% | 1008.3 hPa | 0 mm | 0.89 m/s, 299° | - | - |
| 1778028097 | 13.33° C | 37% | 1008.1 hPa | 0 mm | 1.79 m/s, 269° | - | - |
| 1778027797 | 13.33° C | 37% | 1008.2 hPa | 0 mm | 0.45 m/s, 271° | - | - |
| 1778027497 | 13.33° C | 37% | 1008.1 hPa | 0 mm | 1.34 m/s, 285° | - | - |
| 1778027197 | 13.33° C | 37% | 1008 hPa | 0 mm | 0.89 m/s, 290° | - | - |
| 1778026897 | 13.33° C | 37% | 1008.1 hPa | 0 mm | 1.34 m/s, 297° | - | - |
| 1778026596 | 13.33° C | 37% | 1008.2 hPa | 0 mm | 1.34 m/s, 283° | - | - |
| 1778026297 | 13.33° C | 38% | 1008.1 hPa | 0 mm | 0.89 m/s, 305° | - | - |
| 1778025996 | 13.33° C | 37% | 1008 hPa | 0 mm | 0.89 m/s, 347° | - | - |
| 1778025697 | 13.33° C | 37% | 1008 hPa | 0 mm | 1.79 m/s, 326° | - | - |
| 1778025397 | 13.89° C | 37% | 1008.1 hPa | 0 mm | 0.89 m/s, 347° | - | - |
| 1778025097 | 13.89° C | 36% | 1008.1 hPa | 0 mm | 1.79 m/s, 1° | - | - |
| 1778024797 | 13.89° C | 36% | 1008.1 hPa | 0 mm | 0.45 m/s, 339° | - | - |
| 1778024497 | 13.89° C | 36% | 1008.2 hPa | 0 mm | 1.79 m/s, 273° | - | - |
| 1778024196 | 13.89° C | 36% | 1008.2 hPa | 0 mm | 1.34 m/s, 305° | - | - |
| 1778023897 | 13.89° C | 35% | 1008.2 hPa | 0 mm | 1.79 m/s, 271° | - | - |
| 1778023597 | 13.89° C | 35% | 1008.2 hPa | 0 mm | 1.79 m/s, 271° | - | - |
| 1778023297 | 13.89° C | 35% | 1008.2 hPa | 0 mm | 1.79 m/s, 292° | - | - |
| 1778022997 | 13.89° C | 35% | 1008.2 hPa | 0 mm | 2.24 m/s, 334° | - | - |
| 1778022697 | 14.44° C | 34% | 1008.2 hPa | 0 mm | 3.58 m/s, 308° | - | - |
| 1778022397 | 14.44° C | 34% | 1008.2 hPa | 0 mm | 1.34 m/s, 255° | - | - |
* Rain latest hour (hover to see other rain measurements)
** Current wind speed in m/s (hover to see current wind gust speed)